Вернуться в каталог

BREEZE-KM R/B

АктивенPO
NORAD 42970·ROCKET BODY·🇷🇺 Russia

Запущен Oct 13, 2017 с Plesetsk Cosmodrome

Loading…

Ближайшие Пролёты (ближайшие 24 часа)

TLE

СвежийSource: Space-Track

Эпоха: Sep 14, 2026, 13:54 UTC

1 42970U 17064B   26257.57934584  .00006344  00000-0  18842-3 0  9990
2 42970  98.7418 293.8032 0173149  79.6044 282.4652 15.21698550488475

Отслеживайте BREEZE-KM R/B в реальном времени с AllMySat

Download on the App Store